Big Piney, WY

1:53 AM MDT on August 20, 2017 (GMT -0600)
Big Piney-Marbleton

Weather History for KBPI - December, 2012

Change the Weather History Date:

Tuesday, December 4, 2012

  Actual Average Record
Temperature  
Mean Temperature 21 °F 15 °F  
Max Temperature 31 °F 28 °F 48 °F (2007)
Min Temperature 10 °F 2 °F -31 °F (1992)
Degree Days  
Heating Degree Days 44 50  
Month to date heating degree days 147 198  
Since 1 July heating degree days 2312 3013  
Cooling Degree Days 0 0  
Month to date cooling degree days 0 0  
Year to date cooling degree days 67 35  
Moisture  
Dew Point 17 °F    
Average Humidity 75    
Maximum Humidity 92    
Minimum Humidity 58    
Precipitation  
Precipitation T in 0.01 in 0.50 in (1978)
Month to date precipitation 0.04 0.04  
Year to date precipitation 2.69 6.22  
Sea Level Pressure  
Sea Level Pressure 30.40 in    
Wind  
Wind Speed 3 mph (NE)    
Max Wind Speed 8 mph    
Max Gust Speed 9 mph    
Visibility 10 miles    
Events Snow    
T = Trace of Precipitation, MM = Missing Value Source: NWS Daily Summary

Daily Weather History Graph

Daily Weather History Graph

Search for Another Location

Airport or City:

Trip Planner

Search our weather history database for the weather conditions in past years. The results will help you decide how hot, cold, wet, or windy it might be!

Date:

Astronomy

Dec. 04, 2012 Rise Set
Actual Time 7:34 AM MST 4:47 PM MST
Civil Twilight 7:02 AM MST 5:19 PM MST
Nautical Twilight 6:27 AM MST 5:54 PM MST
Astronomical Twilight 5:53 AM MST 6:28 PM MST
Moon 10:43 PM MST (12/4) 11:25 AM MST (12/4)
Length of Visible Light 10h 16m
Length of Day
9h 13m
Waning Gibbous, 69% of the Moon is Illuminated
Dec 4
Waning Gibbous
Dec 6
Last Quarter
Dec 13
New
Dec 19
First Quarter
Dec 28
Full

Hourly Weather History & Observations

Time (MST) Temp. Windchill Dew Point Humidity Pressure Visibility Wind Dir Wind Speed Gust Speed Precip Events Conditions
12:53 AM 12.9 °F 5.2 °F 10.0 °F 88% 30.38 in 10.0 mi NNW 4.6 mph - N/A   Clear
1:53 AM 12.9 °F 6.9 °F 9.0 °F 84% 30.39 in 10.0 mi ESE 3.5 mph - N/A   Clear
2:53 AM 10.9 °F 2.9 °F 8.1 °F 88% 30.41 in 10.0 mi East 4.6 mph - N/A   Clear
3:53 AM 10.9 °F 2.9 °F 7.0 °F 84% 30.40 in 10.0 mi East 4.6 mph - N/A   Clear
4:53 AM 14.0 °F 8.2 °F 10.0 °F 84% 30.42 in 10.0 mi NNE 3.5 mph - N/A   Clear
5:53 AM 14.0 °F 3.9 °F 10.0 °F 84% 30.46 in 10.0 mi ENE 6.9 mph - N/A   Scattered Clouds
6:53 AM 16.0 °F 6.3 °F 10.9 °F 81% 30.47 in 10.0 mi East 6.9 mph - N/A   Scattered Clouds
7:53 AM 16.0 °F - 12.0 °F 84% 30.49 in 10.0 mi Calm Calm - N/A   Mostly Cloudy
8:53 AM 18.0 °F 11.1 °F 14.0 °F 84% 30.50 in 10.0 mi NW 4.6 mph - N/A   Overcast
9:53 AM 21.9 °F 17.2 °F 17.1 °F 82% 30.47 in 10.0 mi WNW 3.5 mph - N/A   Overcast
10:53 AM 25.0 °F - 19.0 °F 78% 30.47 in 10.0 mi Calm Calm - N/A   Overcast
11:53 AM 27.0 °F - 19.0 °F 72% 30.44 in 10.0 mi Calm Calm - N/A   Overcast
12:53 PM 28.0 °F - 19.0 °F 69% 30.40 in 10.0 mi Calm Calm - N/A   Overcast
1:53 PM 28.9 °F - 18.0 °F 64% 30.40 in 10.0 mi Calm Calm - N/A   Overcast
2:53 PM 30.9 °F - 18.0 °F 59% 30.41 in 10.0 mi Calm Calm - N/A   Overcast
3:53 PM 30.9 °F - 19.0 °F 61% 30.40 in 10.0 mi Calm Calm - N/A   Overcast
4:53 PM 30.0 °F 26.5 °F 19.9 °F 66% 30.38 in 10.0 mi ENE 3.5 mph - N/A   Mostly Cloudy
5:53 PM 27.0 °F 23.0 °F 21.9 °F 81% 30.40 in 10.0 mi East 3.5 mph - N/A   Clear
6:53 PM 28.0 °F 24.2 °F 23.0 °F 81% 30.38 in 10.0 mi ENE 3.5 mph - N/A   Mostly Cloudy
7:53 PM 26.1 °F - 21.9 °F 84% 30.39 in 10.0 mi Calm Calm - N/A   Mostly Cloudy
8:53 PM 28.0 °F 24.2 °F 24.1 °F 85% 30.35 in 10.0 mi East 3.5 mph - N/A   Overcast
9:53 PM 28.9 °F 23.9 °F 24.1 °F 82% 30.32 in 10.0 mi ENE 4.6 mph - N/A   Overcast
10:53 PM 28.0 °F - 25.0 °F 88% 30.29 in 8.0 mi Calm Calm - 0.00 in Snow Light Snow
11:49 PM 28.4 °F - 24.8 °F 86% 30.23 in 10.0 mi Calm Calm - 0.00 in   Overcast
11:53 PM 28.9 °F 25.2 °F 25.0 °F 85% 30.27 in 10.0 mi NNW 3.5 mph - 0.00 in   Overcast